Location: Newark
(36.0797°N, 3.9744°E)
Time: 17:18:53
(UTC+00:00)

Vanguard 2 Rocket - Pass Details

Date: 17 December 2019
Orbit: 554 x 3326 km, 32.9° (Epoch: 18 January)

Event Time Altitude Azimuth Distance (km) Brightness Sun altitude
Rises 17:35:41 0° 264° (W) 7,135 13.2 -12.6°
Reaches altitude 10° 17:40:52 10° 263° (W) 5,888 12.4 -13.6°
Maximum altitude 17:57:53 78° 181° (S) 2,133 8.7 -16.9°
Enters shadow 18:05:26 21° 99° (E) 2,981 9.0 -18.4°
Drops below altitude 10° 18:07:28 10° 97° (E) 3,528 - -18.8°
Sets 18:09:48 0° 96° (E) 4,227 - -19.2°
